Regional Weather Roundup
Issued by NWS Northern Indiana

Home | Current Version | Previous Version | Text Only | Print | Product List | Glossary On
Versions: 1 2 3 4 5 6 7 8 9 10 11 12 13 14 15 16 17 18 19 20 21 22 23 24 25 26 27 28 29 30 31 32 33 34 35 36 37 38 39 40 41 42 43 44 45 46 47 48 49 50
000
ASUS43 KIWX 211710
RWRIWX

KIWX WEATHER ROUNDUP
NATIONAL WEATHER SERVICE NORTHERN INDIANA
1200 PM EST SUN DEC 21 2014

NOTE: "FAIR" INDICATES FEW OR NO CLOUDS BELOW 12,000 FEET WITH NO
SIGNIFICANT WEATHER AND/OR OBSTRUCTIONS TO VISIBILITY.

* THESE STATIONS ARE NOT UNDER NWS QUALITY CONTROL. THEY ALSO MAY NOT
  REPORT WEATHER SUCH AS PRECIPITATION OR FOG.

INZ001>027-211800-
NORTHERN INDIANA

CITY           SKY/WX    TMP DP  RH WIND       PRES   REMARKS
GARY*          CLOUDY    34  25  69 SE9       30.22F WCI  26
VALPARAISO     CLOUDY    31  26  82 S12       30.22F WCI  22
MICHIGAN CITY* CLOUDY    32  23  69 S6        30.22F WCI  26
LAPORTE*       CLOUDY    34  29  81 S7        30.23F WCI  28
KNOX*          CLOUDY    34  24  66 S9        30.23F WCI  27
SOUTH BEND     PTSUNNY   34  27  75 S12       30.23F WCI  25
GOSHEN         CLOUDY    33  26  75 SE10      30.24F WCI  25
MONTICELLO*    CLOUDY    34  27  75 SE8       30.24F WCI  27
LOGANSPORT*    SUNNY     34  27  75 S10       30.25F WCI  26
ROCHESTER*     MOSUNNY   37  30  75 S8        30.25F
WARSAW*        CLOUDY    32  27  80 S7        30.25F WCI  26
ANGOLA*        CLOUDY    30  25  80 S8        30.25F WCI  23
FORT WAYNE     CLOUDY    32  25  75 S8        30.28F HAZE    WCI  25
HUNTINGTON*    CLOUDY    32  26  78 S8        30.26F WCI  25
PERU/GRISSOM   MOSUNNY   35  31  87 SE15      30.24F WCI  25
MARION*        SUNNY     32  27  81 S9        30.26F WCI  24

$$
INZ028>050-211800-
CENTRAL INDIANA

CITY           SKY/WX    TMP DP  RH WIND       PRES   REMARKS
LAFAYETTE      MOSUNNY   35  27  72 S9        30.24F WCI  28
KOKOMO*        SUNNY     34  27  75 S13       30.25F WCI  25
MUNCIE*        SUNNY     33  26  75 SE9       30.25F WCI  25
INDIANAPOLIS   PTSUNNY   32  25  75 SE9       30.24F WCI  24

$$
MIZ043>046-050>051-056>058-064>065-071>073-077>080-211800-
SOUTHWEST LOWER MICHIGAN

CITY           SKY/WX    TMP DP  RH WIND       PRES   REMARKS
BATTLE CREEK   CLOUDY    33  25  72 S8        30.24F WCI  26
BENTON HARBOR  CLOUDY    34  27  75 S10       30.21F WCI  26
COLDWATER*     CLOUDY    32  25  74 MISG      30.25F
HILLSDALE*     CLOUDY    32  28  85 S7        30.25F FOG     WCI  26
HOLLAND        CLOUDY    34  27  75 S8        30.22F WCI  27
GRAND RAPIDS   CLOUDY    33  26  75 S9        30.23F HAZE    WCI  25
KALAMAZOO      CLOUDY    33  25  72 S8        30.24F HAZE    WCI  26
STURGIS*       CLOUDY    30  27  86 S9        30.23F WCI  22
THREE RIVERS*  CLOUDY    32  28  83 S8        30.24F HAZE    WCI  25

$$
OHZ001>008-015>018-024>025-211800-
NORTHWEST OHIO

CITY           SKY/WX    TMP DP  RH WIND       PRES   REMARKS
WAUSEON*       CLOUDY    32  28  86 S7        30.28F FOG     WCI  26
DEFIANCE       CLOUDY    33  26  75 S8        30.29F WCI  26
FINDLAY        CLOUDY    33  26  75 S3        30.29F
TOLEDO EXPRESS CLOUDY    32  25  75 SW6       30.30F WCI  26
TOLEDO METCALF MOSUNNY   33  24  69 S8        30.31F WCI  26
LIMA           CLOUDY    36  25  64 SE6       30.27F

$$
AND FOR LAKE MICHIGAN COASTAL AND OPEN LAKE BUOY OBSERVATIONS

STATION/POSITION TEMP    WIND        PRES    VSBY  WAVE
                 AIR SEA DIR/SP/G                  HT/PER
                 (F)     (DEG/KT/KT) (MB)    (MI)  (FT/S)
CALUMET HARBOR    33     170/ 11/ 15 1021.4F
SAINT JOSEPH      36     170/  4/ 10 1023.7S
MICHIGAN CITY CG     36                N/A    3 1/2  0

$$
&&


USA.gov is the U.S. government's official web portal to all federal, state and local government web resources and services.